View from above orbital plane
|
View from above satellite
|
Ground track
|
The orbit data is extracted from the following two-line orbital elements,
1 40907U 15049J 21017.09304427 .00000691 00000-0 38629-4 0 9997
2 40907 97.4807 21.1514 0013938 356.5063 76.4478 15.16708238294656
Epoch (UTC): | 17 January 2021 02:13:59 |
Eccentricity: | 0.0013938 |
inclination: | 97.4807° |
perigee height: | 506 km |
apogee height: | 525 km |
right ascension of ascending node: | 21.1514° |
argument of perigee: | 356.5063° |
revolutions per day: | 15.16708238 |
mean anomaly at epoch: | 76.4478° |
orbit number at epoch: | 29465 |
The dashed part of the orbit path shows where the satellite is in the earth's shadow,
|
|